This demonstration page uses our WeatherBlox Daily Observations layout. Learn more.

Left ArrowRight Arrow

Hourly Observations for June 30, 2022

Temp ( °F °C ) Dew Point ( °F °C ) Humidity (%) Winds ( mph kmh ) Pressure ( in mb ) Visibility ( mi km ) Precip ( " mm )
12:59 am 00:59 Clear 70 21.1 64 17.8 82 82 S 3 6 30.26 1025 10 16 0.00 0.00
1:59 am 01:59 Clear 69 20.6 64 17.8 84 84 S 3 6 30.25 1025 10 16 0.00 0.00
2:59 am 02:59 Clear 67 19.4 64 17.8 91 91 S 3 6 30.25 1024 7 11 0.00 0.00
3:59 am 03:59 Clear with Mist and Fog 67 19.4 65 18.3 93 93 S 3 6 30.24 1024 6 10 0.00 0.00
4:59 am 04:59 Partly Cloudy 68 20 65 18.3 90 90 SSW 5 7 30.24 1024 9 14 0.00 0.00
5:59 am 05:59 Partly Cloudy 68 20 65 18.3 90 90 S 3 6 30.25 1025 8 13 0.00 0.00
6:59 am 06:59 Partly Cloudy 68 20 66 18.9 93 93 SSW 5 7 30.25 1025 7 11 0.00 0.00
7:59 am 07:59 Partly Cloudy with Mist and Fog 70 21.1 67 19.4 90 90 SW 7 11 30.26 1025 6 10 0.00 0.00
8:59 am 08:59 Mostly Sunny 75 23.9 69 20.6 82 82 WSW 6 9 30.26 1025 8 13 0.00 0.00
9:59 am 09:59 Mostly Sunny 82 27.8 72 22.2 72 72 VRB 3 6 30.26 1025 10 16 0.00 0.00
10:59 am 10:59 Hazy 84 28.9 69 20.6 61 61 VRB 3 6 30.25 1024 6 10 0.00 0.00
11:59 am 11:59 Hazy 84 28.9 69 20.6 61 61 NW 6 9 30.24 1024 6 10 0.00 0.00
12:59 pm 12:59 Hazy 84 28.9 69 20.6 61 61 NNE 5 7 30.23 1024 6 10 0.00 0.00
1:59 pm 13:59 Hazy 87 30.6 72 22.2 61 61 NE 10 17 30.21 1023 6 10 0.00 0.00
2:59 pm 14:59 Hazy 88 31.1 70 21.1 55 55 ENE 12 19 30.19 1022 6 10 0.00 0.00
3:59 pm 15:59 Hazy 87 30.6 69 20.6 55 55 SSE 12 19 30.18 1022 6 10 0.00 0.00
4:59 pm 16:59 Partly Cloudy 85 29.4 69 20.6 59 59 SSE 14 22 30.17 1022 10 16 0.00 0.00
5:59 pm 17:59 Partly Cloudy 85 29.4 69 20.6 59 59 SSE 12 19 30.16 1021 10 16 0.00 0.00
6:59 pm 18:59 Partly Cloudy 84 28.9 69 20.6 61 61 S 13 20 30.16 1021 10 16 0.00 0.00
7:59 pm 19:59 Partly Cloudy 82 27.8 70 21.1 67 67 S 8 13 30.16 1022 10 16 0.00 0.00
8:59 pm 20:59 Partly Cloudy 80 26.7 70 21.1 71 71 S 8 13 30.17 1022 10 16 0.00 0.00
9:59 pm 21:59 Mostly Clear 80 26.7 70 21.1 71 71 S 7 11 30.19 1022 10 16 0.00 0.00
10:59 pm 22:59 Mostly Clear 77 25 69 20.6 77 77 S 10 17 30.20 1023 10 16 0.00 0.00
11:59 pm 23:59 Partly Cloudy 76 24.4 70 21.1 82 82 S 8 13 30.19 1022 10 16 0.00 0.00

Powered by AerisWeather